Location: Crescent
(42.8242°N, 73.7329°W)
Time: 05:29:15
(UTC+00:00)

A-11 Canister half - All Passes

Search period start: 18 February 2026 00:00
Search period end: 28 February 2026 00:00
Orbit: 1512 x 1687 km, 47.2° (Epoch: 17 February)

Date Brightness Start Highest point End Pass type
(mag) Time Alt. Az. Time Alt. Az. Time Alt. Az.
18 Feb - 00:43:10 10° SSW 00:52:33 44° SE 01:01:48 10° ENE visible
18 Feb - 02:46:53 10° WSW 02:57:07 87° NNW 03:07:04 10° ENE visible
18 Feb - 04:52:46 10° W 05:02:49 69° N 05:12:31 10° E visible
18 Feb - 06:58:24 10° WNW 07:08:22 86° SSW 07:17:54 10° ESE visible
18 Feb - 09:04:02 10° WNW 09:12:29 35° SW 09:20:40 10° SSE visible
19 Feb - 00:20:17 10° SSW 00:29:32 42° SE 00:38:41 10° ENE visible
19 Feb - 02:23:47 10° WSW 02:34:01 89° NNW 02:44:00 10° ENE visible
19 Feb - 04:29:37 10° W 04:39:42 69° N 04:49:26 10° E visible
19 Feb - 06:35:18 10° WNW 06:45:18 88° SSW 06:54:53 10° ESE visible
19 Feb - 08:40:52 10° WNW 08:49:31 38° SW 08:57:53 10° SSE visible
19 Feb - 23:57:25 10° SSW 00:06:32 39° SE 00:15:33 10° ENE visible
20 Feb - 02:00:42 10° WSW 02:10:56 88° SSE 02:20:57 10° ENE visible
20 Feb - 04:06:29 10° W 04:16:35 69° N 04:26:20 10° E visible
20 Feb - 06:12:11 10° WNW 06:22:13 89° NNE 06:31:51 10° ESE visible
20 Feb - 08:17:42 10° WNW 08:26:32 40° SW 08:35:05 10° SSE visible
20 Feb - 23:34:34 10° SSW 23:43:31 37° SE 23:52:24 10° ENE visible
21 Feb - 01:37:36 10° WSW 01:47:50 86° SSE 01:57:52 10° ENE visible
21 Feb - 03:43:20 10° W 03:53:27 69° N 04:03:16 10° E visible
21 Feb - 05:49:05 10° WNW 05:59:09 87° NNE 06:08:48 10° ESE night (unlit)
21 Feb - 07:54:34 10° WNW 08:03:34 43° SW 08:12:15 10° SSE visible
21 Feb - 23:11:44 10° SSW 23:20:31 35° SE 23:29:15 10° ENE visible
22 Feb - 01:14:32 10° WSW 01:24:45 83° SSE 01:34:48 10° ENE visible
22 Feb - 03:20:10 10° W 03:30:19 69° N 03:40:10 10° E visible
22 Feb - 05:25:58 10° WNW 05:36:04 85° NNE 05:45:46 10° ESE visible
22 Feb - 07:31:25 10° WNW 07:40:34 45° SW 07:49:24 10° SSE visible
22 Feb - 09:41:48 10° WSW 09:43:27 11° WSW 09:45:06 10° SW visible
22 Feb - 22:48:57 10° S 22:57:32 33° SE 23:06:05 10° ENE visible
23 Feb - 00:51:28 10° WSW 01:01:40 80° SSE 01:11:44 10° ENE visible
23 Feb - 02:57:01 10° W 03:07:11 70° N 03:17:05 10° E visible
23 Feb - 05:02:51 10° WNW 05:12:58 83° NNE 05:22:42 10° ESE visible
23 Feb - 07:08:17 10° WNW 07:17:35 48° SW 07:26:32 10° SSE visible
23 Feb - 09:17:23 10° W 09:20:33 12° WSW 09:23:42 10° SW visible
23 Feb - 22:26:10 10° S 22:34:33 30° SE 22:42:53 10° ENE daylight
24 Feb - 00:28:25 10° SW 00:38:35 78° SSE 00:48:39 10° ENE visible
24 Feb - 02:33:52 10° W 02:44:04 70° N 02:53:59 10° ENE visible
24 Feb - 04:39:44 10° WNW 04:49:53 81° NNE 04:59:39 10° ESE visible
24 Feb - 06:45:09 10° WNW 06:54:35 51° SW 07:03:39 10° SSE night (unlit)
24 Feb - 08:53:30 10° W 08:57:38 13° WSW 09:01:43 10° SSW visible
24 Feb - 22:03:25 10° S 22:11:34 28° SE 22:19:42 10° ENE daylight
25 Feb - 00:05:22 10° SW 00:15:31 75° SSE 00:25:35 10° ENE visible
25 Feb - 02:10:44 10° W 02:20:56 71° N 02:30:54 10° ENE visible
25 Feb - 04:16:37 10° WNW 04:26:47 79° NNE 04:36:35 10° ESE visible
25 Feb - 06:22:01 10° WNW 06:31:35 54° SW 06:40:46 10° SE night (unlit)
25 Feb - 08:29:51 10° W 08:34:43 15° WSW 08:39:32 10° SSW night (unlit)
25 Feb - 21:40:43 10° S 21:48:35 27° SE 21:56:27 10° ENE daylight
25 Feb - 23:42:20 10° SW 23:52:28 72° SSE 00:02:30 10° ENE visible
26 Feb - 01:47:35 10° W 01:57:49 72° N 02:07:48 10° ENE visible
26 Feb - 03:53:30 10° WNW 04:03:40 78° NNE 04:13:31 10° ESE visible
26 Feb - 05:58:54 10° WNW 06:08:34 57° SW 06:17:52 10° SE night (unlit)
26 Feb - 08:06:19 10° W 08:11:48 17° WSW 08:17:12 10° SSW night (unlit)
26 Feb - 21:18:03 10° S 21:25:37 25° SE 21:33:12 10° E daylight
26 Feb - 23:19:19 10° SW 23:29:23 69° SSE 23:39:25 10° ENE visible
27 Feb - 01:24:27 10° W 01:34:40 73° N 01:44:43 10° ENE visible
27 Feb - 03:30:22 10° WNW 03:40:34 76° NNE 03:50:26 10° E visible
27 Feb - 05:35:47 10° WNW 05:45:33 60° SW 05:54:56 10° SE visible
27 Feb - 07:42:52 10° W 07:48:53 18° SW 07:54:47 10° SSW night (unlit)
27 Feb - 20:55:24 10° S 21:02:39 23° SE 21:09:55 10° E daylight
27 Feb - 22:56:19 10° SW 23:06:20 66° SE 23:16:20 10° ENE visible
